Location: Bishop�s Knoyle
(51.0728°N, 2.1714°W)
Time: 18:45:21
(UTC+00:00)

BEESAT 2 - Pass Details

Date: 07 December 2021
Orbit: 498 x 513 km, 64.9° (Epoch: 27 January)

Event Time Altitude Azimuth Distance (km) Brightness Sun altitude
Exits shadow 04:58:34 41° 103° (ESE) 763 ? -27.0°
Drops below altitude 10° 05:01:19 10° 125° (SE) 1,740 ? -26.5°
Sets 05:03:30 0° 130° (SE) 2,622 ? -26.2°
